STARLINK-2364, 47904

Orbit data source: Space-Track

STARLINK-2364, 47904 is a payload satellite owned by SpaceX/Seattle (US) in LEO that was launched on Sun, 14 Mar 2021 UTC via an FALCON 9 launch vehicle from the Air Force Eastern Test Range (AFETR). Payload-class satellites include a variety of spacecraft equipped with specific instruments for various scientific and technological missions. These include communications satellites like Starlink; space stations such as the ISS; scientific satellites like the Hubble; Earth observation satellites from companies like Planet Labs, Umbra, and HawkEye 360; GPS; miniature CubeSats for education and research; and military/defense satellites.

Loading next visibility...
Identifier
47904, 2021-021AW
Orbit
LEO
Country
Flag of USUS
Related business
Manufacturer
SpaceX/Seattle
Mission
Operational Commercial Communications
Bus & Motor
STARLINK, Unknown motor
Mass
260 kg wet, ~248 kg dry
Launch date (UTC)
2021-03-14 (5 years ago)
Launch vehicle
FALCON 9
Launch site
Air Force Eastern Test Range (AFETR)
Object type
Payload
Rocket body
Debris
Shape & HBR
Box + 1 Pan, 10.1 m
Radar Cross Section
13.562 m², Large (>1 m²)

Expand to show TLE details & history
Last TLE update: 2 days ago

TLE from 2 days ago
0 STARLINK-2364
1 47904U 21021AW  26171.18558223  .00002419  00000-0  89682-4 0  9994
2 47904  53.1599 138.4291 0001239  90.6050 269.5094 15.31705025292110
Epoch: 2026-06-20T04:27Z
TLE epoch observation values (Epoch: 2026-06-20T04:27:14.304Z)
Latitude
0.00002°
Longitude
163.21568°
Altitude
471.633 km
Speed
7.631 km/s
True Right ascension
09h 13m 42s
True Declination
0° 00' 00"
Sunlit
Object was in daylight at epoch
Visualization orbit readout
Latitude
Unknown
Longitude
Unknown
Altitude
Unknown
Speed
Unknown
Apparent Right ascension
Unknown
Apparent Declination
Unknown
Sunlit
N/A
Visualization observer readout
Local Sidereal Time
21:28:09
Azimuth
Unknown
Elevation
Unknown
Doppler factor
Unknown
Orbital elements
Apogee altitude
471.83 km
Perigee altitude
470.133 km
Semi-major axis
6,849.119 km
Eccentricity
0.00012
Inclination
53.1599°
RAAN
138.4291°
Arg. of periapsis
90.605°
True anomaly
269.4952°
Mean anomaly
269.5094°
Eccentric anomaly
269.5023°
Mean motion
3.82905 °/min
Orbital period
94.02 mins
BSTAR
0.000089682
Loading maneuver chart data...
Computing Atmospheric mass density...

Documentation

Showing up to 5 results
|